Year,Month,Day,Hour,Minute,Value (Times are PST for windgust in km/hr)
2013,09,28,01,38,3.20
2013,09,28,01,39,3.20
2013,09,28,01,47,4.80
2013,09,28,01,48,3.20
2013,09,28,01,49,6.40
2013,09,28,01,50,12.90
2013,09,28,01,51,8.10
2013,09,28,01,52,9.60
2013,09,28,01,53,11.30
2013,09,28,01,54,12.90
2013,09,28,01,55,11.30
2013,09,28,01,56,6.40
2013,09,28,01,57,1.60
2013,09,28,01,58,11.30
2013,09,28,01,59,9.60
2013,09,28,02,00,8.10
2013,09,28,02,01,12.90
2013,09,28,02,02,11.30
2013,09,28,02,03,20.90
2013,09,28,02,04,12.90
2013,09,28,02,05,11.30
2013,09,28,02,06,8.10
2013,09,28,02,07,24.20
2013,09,28,02,08,16.10
2013,09,28,02,09,12.90
2013,09,28,02,10,3.20
2013,09,28,02,11,1.60
2013,09,28,02,12,12.90
2013,09,28,02,13,12.90
2013,09,28,02,14,9.60
2013,09,28,02,15,9.60
2013,09,28,02,16,12.90
2013,09,28,02,17,12.90
2013,09,28,02,18,14.50
2013,09,28,02,19,9.60
2013,09,28,02,20,12.90
2013,09,28,02,21,11.30
2013,09,28,02,22,17.70
2013,09,28,02,23,16.10
2013,09,28,02,24,14.50
2013,09,28,02,25,11.30
2013,09,28,02,26,17.70
2013,09,28,02,27,14.50
2013,09,28,02,28,4.80
2013,09,28,02,29,17.70
2013,09,28,02,30,19.30
2013,09,28,02,31,12.90
2013,09,28,02,32,11.30
2013,09,28,02,33,11.30
2013,09,28,02,34,14.50
2013,09,28,02,35,9.60
2013,09,28,02,36,12.90
2013,09,28,02,37,12.90
2013,09,28,02,38,6.40
2013,09,28,02,39,19.30
2013,09,28,02,40,19.30
2013,09,28,02,41,19.30
2013,09,28,02,42,14.50
2013,09,28,02,43,14.50
2013,09,28,02,44,17.70
2013,09,28,02,45,14.50
2013,09,28,02,46,24.20
2013,09,28,02,47,16.10
2013,09,28,02,48,8.10
2013,09,28,02,49,19.30
2013,09,28,02,50,12.90
2013,09,28,02,51,14.50
2013,09,28,02,52,16.10
2013,09,28,02,53,16.10
2013,09,28,02,54,12.90
2013,09,28,02,55,14.50
2013,09,28,02,56,16.10
2013,09,28,02,57,11.30
2013,09,28,02,58,1.60
2013,09,28,02,59,12.90
2013,09,28,03,00,8.10
2013,09,28,03,01,20.90
2013,09,28,03,02,12.90
2013,09,28,03,06,17.70
2013,09,28,03,07,6.40
2013,09,28,03,10,9.60
2013,09,28,03,11,8.10
2013,09,28,03,12,4.80
2013,09,28,03,13,6.40
2013,09,28,03,14,4.80
2013,09,28,03,16,1.60
2013,09,28,04,13,1.60
2013,09,28,04,36,3.20
2013,09,28,04,37,3.20
2013,09,28,06,15,4.80
2013,09,28,06,16,3.20
2013,09,28,06,17,4.80
2013,09,28,06,18,3.20
2013,09,28,06,22,4.80
2013,09,28,06,29,8.10
2013,09,28,06,30,6.40
2013,09,28,06,32,3.20
2013,09,28,06,33,3.20
2013,09,28,06,34,4.80
2013,09,28,06,35,4.80
2013,09,28,06,36,4.80
2013,09,28,06,41,1.60
2013,09,28,06,43,11.30
2013,09,28,06,44,3.20
2013,09,28,06,45,6.40
2013,09,28,06,54,6.40
2013,09,28,06,55,3.20
2013,09,28,07,36,3.20
2013,09,28,07,43,1.60
2013,09,28,07,44,1.60
2013,09,28,08,45,1.60
2013,09,28,09,14,1.60
2013,09,28,09,15,3.20
2013,09,28,10,00,1.60
2013,09,28,10,20,3.20
2013,09,28,10,38,1.60
2013,09,28,11,03,1.60
2013,09,28,11,18,1.60
2013,09,28,11,34,1.60
2013,09,28,11,48,3.20
2013,09,28,11,49,3.20
2013,09,28,11,52,6.40
2013,09,28,11,53,4.80
2013,09,28,11,54,1.60
2013,09,28,11,59,1.60
2013,09,28,12,06,4.80
2013,09,28,12,07,4.80
2013,09,28,12,11,6.40
2013,09,28,12,12,3.20
2013,09,28,12,26,1.60
2013,09,28,12,37,6.40
2013,09,28,12,39,12.90
2013,09,28,12,40,11.30
2013,09,28,12,41,4.80
2013,09,28,12,43,9.60
2013,09,28,12,44,11.30
2013,09,28,12,45,4.80
2013,09,28,12,48,14.50
2013,09,28,12,49,6.40
2013,09,28,12,50,20.90
2013,09,28,12,51,19.30
2013,09,28,12,52,12.90
2013,09,28,12,53,14.50
2013,09,28,12,54,14.50
2013,09,28,12,55,17.70
2013,09,28,12,56,6.40
2013,09,28,12,57,11.30
2013,09,28,12,59,9.60
2013,09,28,13,00,9.60
2013,09,28,13,01,8.10
2013,09,28,13,04,14.50
2013,09,28,13,05,14.50
2013,09,28,13,07,11.30
2013,09,28,13,08,9.60
2013,09,28,13,09,8.10
2013,09,28,13,10,12.90
2013,09,28,13,11,9.60
2013,09,28,13,12,20.90
2013,09,28,13,13,16.10
2013,09,28,13,14,16.10
2013,09,28,13,15,12.90
2013,09,28,13,16,14.50
2013,09,28,13,17,12.90
2013,09,28,13,18,12.90
2013,09,28,13,19,19.30
2013,09,28,13,20,9.60
2013,09,28,13,21,11.30
2013,09,28,13,22,8.10
2013,09,28,13,23,8.10
2013,09,28,13,25,6.40
2013,09,28,13,27,17.70
2013,09,28,13,28,19.30
2013,09,28,13,29,14.50
2013,09,28,13,30,12.90
2013,09,28,13,31,9.60
2013,09,28,13,32,11.30
2013,09,28,13,33,12.90
2013,09,28,13,34,8.10
2013,09,28,13,35,11.30
2013,09,28,13,36,14.50
2013,09,28,13,37,17.70
2013,09,28,13,38,20.90
2013,09,28,13,39,16.10
2013,09,28,13,40,12.90
2013,09,28,13,41,16.10
2013,09,28,13,42,19.30
2013,09,28,13,43,12.90
2013,09,28,13,44,11.30
2013,09,28,13,45,11.30
2013,09,28,13,46,19.30
2013,09,28,13,47,11.30
2013,09,28,13,48,12.90
2013,09,28,13,50,8.10
2013,09,28,13,51,17.70
2013,09,28,13,52,19.30
2013,09,28,13,53,19.30
2013,09,28,13,54,19.30
2013,09,28,13,55,12.90
2013,09,28,13,56,12.90
2013,09,28,13,57,9.60
2013,09,28,13,58,16.10
2013,09,28,13,59,8.10
2013,09,28,14,00,8.10
2013,09,28,14,01,11.30
2013,09,28,14,02,11.30
2013,09,28,14,03,6.40
2013,09,28,14,04,12.90
2013,09,28,14,05,12.90
2013,09,28,14,06,9.60
2013,09,28,14,07,14.50
2013,09,28,14,08,27.40
2013,09,28,14,09,30.60
2013,09,28,14,10,37.00
2013,09,28,14,11,24.20
2013,09,28,14,12,17.70
2013,09,28,14,13,24.20
2013,09,28,14,14,27.40
2013,09,28,14,15,27.40
2013,09,28,14,16,14.50
2013,09,28,14,17,24.20
2013,09,28,14,18,22.50
2013,09,28,14,19,16.10
2013,09,28,14,20,12.90
2013,09,28,14,21,12.90
2013,09,28,14,22,29.00
2013,09,28,14,23,30.60
2013,09,28,14,24,30.60
2013,09,28,14,25,35.40
2013,09,28,14,26,29.00
2013,09,28,14,27,24.20
2013,09,28,14,28,32.20
2013,09,28,14,29,25.70
2013,09,28,14,30,32.20
2013,09,28,14,31,35.40
2013,09,28,14,32,24.20
2013,09,28,14,33,20.90
2013,09,28,14,34,29.00
2013,09,28,14,35,37.00
2013,09,28,14,36,33.80
2013,09,28,14,37,30.60
2013,09,28,14,38,38.60
2013,09,28,14,39,32.20
2013,09,28,14,40,30.60
2013,09,28,14,41,29.00
2013,09,28,14,42,41.80
2013,09,28,14,43,32.20
2013,09,28,14,44,24.20
2013,09,28,14,45,37.00
2013,09,28,14,46,27.40
2013,09,28,14,47,29.00
2013,09,28,14,48,25.70
2013,09,28,14,49,27.40
2013,09,28,14,50,29.00
2013,09,28,14,51,25.70
2013,09,28,14,52,35.40
2013,09,28,14,53,35.40
2013,09,28,14,54,25.70
2013,09,28,14,55,17.70
2013,09,28,14,56,24.20
2013,09,28,14,57,22.50
2013,09,28,14,58,22.50
2013,09,28,14,59,27.40
2013,09,28,15,00,22.50
2013,09,28,15,01,27.40
2013,09,28,15,02,19.30
2013,09,28,15,03,20.90
2013,09,28,15,04,19.30
2013,09,28,15,05,32.20
2013,09,28,15,06,30.60
2013,09,28,15,07,29.00
2013,09,28,15,08,25.70
2013,09,28,15,09,32.20
2013,09,28,15,10,19.30
2013,09,28,15,11,33.80
2013,09,28,15,12,33.80
2013,09,28,15,13,25.70
2013,09,28,15,14,30.60
2013,09,28,15,15,27.40
2013,09,28,15,16,27.40
2013,09,28,15,17,29.00
2013,09,28,15,18,30.60
2013,09,28,15,19,25.70
2013,09,28,15,20,25.70
2013,09,28,15,21,22.50
2013,09,28,15,22,16.10
2013,09,28,15,23,35.40
2013,09,28,15,24,29.00
2013,09,28,15,25,29.00
2013,09,28,15,26,25.70
2013,09,28,15,27,35.40
2013,09,28,15,28,22.50
2013,09,28,15,29,24.20
2013,09,28,15,30,37.00
2013,09,28,15,31,30.60
2013,09,28,15,32,32.20
2013,09,28,15,33,30.60
2013,09,28,15,34,37.00
2013,09,28,15,35,29.00
2013,09,28,15,36,24.20
2013,09,28,15,37,33.80
2013,09,28,15,38,33.80
2013,09,28,15,39,24.20
2013,09,28,15,40,30.60
2013,09,28,15,41,25.70
2013,09,28,15,42,24.20
2013,09,28,15,43,29.00
2013,09,28,15,44,25.70
2013,09,28,15,45,27.40
2013,09,28,15,46,22.50
2013,09,28,15,47,16.10
2013,09,28,15,48,16.10
2013,09,28,15,49,16.10
2013,09,28,15,50,24.20
2013,09,28,15,51,17.70
2013,09,28,15,52,25.70
2013,09,28,15,53,24.20
2013,09,28,15,54,16.10
2013,09,28,15,55,30.60
2013,09,28,15,56,27.40
2013,09,28,15,57,30.60
2013,09,28,15,58,35.40
2013,09,28,15,59,25.70
2013,09,28,16,00,37.00
2013,09,28,16,01,30.60
2013,09,28,16,02,16.10
2013,09,28,16,03,22.50
2013,09,28,16,04,22.50
2013,09,28,16,05,14.50
2013,09,28,16,06,20.90
2013,09,28,16,07,30.60
2013,09,28,16,08,29.00
2013,09,28,16,09,30.60
2013,09,28,16,10,19.30
2013,09,28,16,11,33.80
2013,09,28,16,12,24.20
2013,09,28,16,13,17.70
2013,09,28,16,14,29.00
2013,09,28,16,15,20.90
2013,09,28,16,16,20.90
2013,09,28,16,17,25.70
2013,09,28,16,18,22.50
2013,09,28,16,19,35.40
2013,09,28,16,20,27.40
2013,09,28,16,21,19.30
2013,09,28,16,22,19.30
2013,09,28,16,23,29.00
2013,09,28,16,24,17.70
2013,09,28,16,25,14.50
2013,09,28,16,26,12.90
2013,09,28,16,27,8.10
2013,09,28,16,28,8.10
2013,09,28,16,29,14.50
2013,09,28,16,30,14.50
2013,09,28,16,31,11.30
2013,09,28,16,32,12.90
2013,09,28,16,33,11.30
2013,09,28,16,34,16.10
2013,09,28,16,35,8.10
2013,09,28,16,36,1.60
2013,09,28,16,37,8.10
2013,09,28,16,38,16.10
2013,09,28,16,39,3.20
2013,09,28,16,48,12.90
2013,09,28,16,49,9.60
2013,09,28,16,50,6.40
2013,09,28,16,54,8.10
2013,09,28,16,55,8.10
2013,09,28,16,56,4.80
2013,09,28,16,57,3.20
2013,09,28,16,58,1.60
2013,09,28,17,10,1.60
2013,09,28,17,15,4.80
2013,09,28,17,42,6.40
2013,09,28,17,43,6.40
2013,09,28,17,44,16.10
2013,09,28,17,45,12.90
2013,09,28,17,46,17.70
2013,09,28,17,47,19.30
2013,09,28,17,48,17.70
2013,09,28,17,49,16.10
2013,09,28,17,50,14.50
2013,09,28,17,51,19.30
2013,09,28,17,52,19.30
2013,09,28,17,53,12.90
2013,09,28,17,54,24.20
2013,09,28,17,55,14.50
2013,09,28,17,56,9.60
2013,09,28,17,57,9.60
2013,09,28,17,58,14.50
2013,09,28,17,59,14.50
2013,09,28,18,00,6.40
2013,09,28,18,01,16.10
2013,09,28,18,02,12.90
2013,09,28,18,03,6.40
2013,09,28,18,04,3.20
2013,09,28,18,10,14.50
2013,09,28,18,11,12.90
2013,09,28,18,12,17.70
2013,09,28,18,13,12.90
2013,09,28,18,14,9.60
2013,09,28,18,15,11.30
2013,09,28,18,16,8.10
2013,09,28,18,17,11.30
2013,09,28,18,18,11.30
2013,09,28,18,19,11.30
2013,09,28,18,20,12.90
2013,09,28,18,21,17.70
2013,09,28,18,22,11.30
2013,09,28,18,23,12.90
2013,09,28,18,24,12.90
2013,09,28,18,25,12.90
2013,09,28,18,26,20.90
2013,09,28,18,27,33.80
2013,09,28,18,28,25.70
2013,09,28,18,29,29.00
2013,09,28,18,30,17.70
2013,09,28,18,31,32.20
2013,09,28,18,32,30.60
2013,09,28,18,33,38.60
2013,09,28,18,34,38.60
2013,09,28,18,35,38.60
2013,09,28,18,36,30.60
2013,09,28,18,37,40.20
2013,09,28,18,38,46.70
2013,09,28,18,39,43.50
2013,09,28,18,40,41.80
2013,09,28,18,41,33.80
2013,09,28,18,42,38.60
2013,09,28,18,43,46.70
2013,09,28,18,44,27.40
2013,09,28,18,45,33.80
2013,09,28,18,46,27.40
2013,09,28,18,47,32.20
2013,09,28,18,48,38.60
2013,09,28,18,49,33.80
2013,09,28,18,50,32.20
2013,09,28,18,51,38.60
2013,09,28,18,52,32.20
2013,09,28,18,53,27.40
2013,09,28,18,54,30.60
2013,09,28,18,55,29.00
2013,09,28,18,56,32.20
2013,09,28,18,57,30.60
2013,09,28,18,58,27.40
2013,09,28,18,59,25.70
2013,09,28,19,00,22.50
2013,09,28,19,01,29.00
2013,09,28,19,02,30.60
2013,09,28,19,03,29.00
2013,09,28,19,04,20.90
2013,09,28,19,05,25.70
2013,09,28,19,06,25.70
2013,09,28,19,07,32.20
2013,09,28,19,08,16.10
2013,09,28,19,09,22.50
2013,09,28,19,10,8.10
2013,09,28,19,11,4.80
2013,09,28,19,12,8.10
2013,09,28,19,13,8.10
2013,09,28,19,33,9.60
2013,09,28,19,34,11.30
2013,09,28,19,35,4.80
2013,09,28,19,36,6.40
2013,09,28,19,37,6.40
2013,09,28,19,40,9.60
2013,09,28,19,41,11.30
2013,09,28,19,42,9.60
2013,09,28,19,44,14.50
2013,09,28,19,45,9.60
2013,09,28,19,46,17.70
2013,09,28,19,47,14.50
2013,09,28,19,48,9.60
2013,09,28,19,49,17.70
2013,09,28,19,50,14.50
2013,09,28,19,51,11.30
2013,09,28,19,52,12.90
2013,09,28,19,53,22.50
2013,09,28,19,54,20.90
2013,09,28,19,55,22.50
2013,09,28,19,56,22.50
2013,09,28,19,57,24.20
2013,09,28,19,58,16.10
2013,09,28,19,59,20.90
2013,09,28,20,00,22.50
2013,09,28,20,01,17.70
2013,09,28,20,02,16.10
2013,09,28,20,03,22.50
2013,09,28,20,04,11.30
2013,09,28,20,05,19.30
2013,09,28,20,06,25.70
2013,09,28,20,07,29.00
2013,09,28,20,08,19.30
2013,09,28,20,09,14.50
2013,09,28,20,10,16.10
2013,09,28,20,11,19.30
2013,09,28,20,12,16.10
2013,09,28,20,13,14.50
2013,09,28,20,14,27.40
2013,09,28,20,15,20.90
2013,09,28,20,16,33.80
2013,09,28,20,17,20.90
2013,09,28,20,18,19.30
2013,09,28,20,19,17.70
2013,09,28,20,20,20.90
2013,09,28,20,21,32.20
2013,09,28,20,22,14.50
2013,09,28,20,23,19.30
2013,09,28,20,24,14.50
2013,09,28,20,25,27.40
2013,09,28,20,26,16.10
2013,09,28,20,27,14.50
2013,09,28,20,28,20.90
2013,09,28,20,29,29.00
2013,09,28,20,30,29.00
2013,09,28,20,31,32.20
2013,09,28,20,32,25.70
2013,09,28,20,33,22.50
2013,09,28,20,34,19.30
2013,09,28,20,35,22.50
2013,09,28,20,36,25.70
2013,09,28,20,37,29.00
2013,09,28,20,38,17.70
2013,09,28,20,39,17.70
2013,09,28,20,40,22.50
2013,09,28,20,41,29.00
2013,09,28,20,42,29.00
2013,09,28,20,43,25.70
2013,09,28,20,44,17.70
2013,09,28,20,45,24.20
2013,09,28,20,46,32.20
2013,09,28,20,47,17.70
2013,09,28,20,48,19.30
2013,09,28,20,49,20.90
2013,09,28,20,50,9.60
2013,09,28,20,51,8.10
2013,09,28,20,52,14.50
2013,09,28,20,53,11.30
2013,09,28,20,54,8.10
2013,09,28,21,05,11.30
2013,09,28,21,06,8.10
2013,09,28,21,07,8.10
2013,09,28,21,08,8.10
2013,09,28,21,09,9.60
2013,09,28,21,10,24.20
2013,09,28,21,11,9.60
2013,09,28,21,12,11.30
2013,09,28,21,13,14.50
2013,09,28,21,14,19.30
2013,09,28,21,15,17.70
2013,09,28,21,16,17.70
2013,09,28,21,17,22.50
2013,09,28,21,18,27.40
2013,09,28,21,19,12.90
2013,09,28,21,20,14.50
2013,09,28,21,21,20.90
2013,09,28,21,22,27.40
2013,09,28,21,23,37.00
2013,09,28,21,24,27.40
2013,09,28,21,25,17.70
2013,09,28,21,26,14.50
2013,09,28,21,27,12.90
2013,09,28,21,28,9.60
2013,09,28,21,29,6.40
2013,09,28,21,30,9.60
2013,09,28,21,31,20.90
2013,09,28,21,32,8.10
2013,09,28,21,33,14.50
2013,09,28,21,34,11.30
2013,09,28,21,35,3.20
2013,09,28,21,36,14.50
2013,09,28,21,37,8.10
2013,09,28,21,38,4.80
2013,09,28,21,39,11.30
2013,09,28,21,40,11.30
2013,09,28,21,41,19.30
2013,09,28,21,42,29.00
2013,09,28,21,43,25.70
2013,09,28,21,44,14.50
2013,09,28,21,45,9.60
2013,09,28,21,46,24.20
2013,09,28,21,47,16.10
2013,09,28,21,48,14.50
2013,09,28,21,49,12.90
2013,09,28,21,50,16.10
2013,09,28,21,51,14.50
2013,09,28,21,52,14.50
2013,09,28,21,53,11.30
2013,09,28,21,54,16.10
2013,09,28,21,55,12.90
2013,09,28,21,56,11.30
2013,09,28,21,57,11.30
2013,09,28,21,59,9.60
2013,09,28,22,00,8.10
2013,09,28,22,01,14.50
2013,09,28,22,02,11.30
2013,09,28,22,03,11.30
2013,09,28,22,04,14.50
2013,09,28,22,05,22.50
2013,09,28,22,06,17.70
2013,09,28,22,07,20.90
2013,09,28,22,08,11.30
2013,09,28,22,09,24.20
2013,09,28,22,10,14.50
2013,09,28,22,11,9.60
2013,09,28,22,12,11.30
2013,09,28,22,13,14.50
2013,09,28,22,14,12.90
2013,09,28,22,15,12.90
2013,09,28,22,16,19.30
2013,09,28,22,17,14.50
2013,09,28,22,18,9.60
2013,09,28,22,19,11.30
2013,09,28,22,20,11.30
2013,09,28,22,21,8.10
2013,09,28,22,22,11.30
2013,09,28,22,23,3.20
2013,09,28,22,24,9.60
2013,09,28,22,25,1.60
2013,09,28,22,26,14.50
2013,09,28,22,27,17.70
2013,09,28,22,28,16.10
2013,09,28,22,29,14.50
2013,09,28,22,30,12.90
2013,09,28,22,31,14.50
2013,09,28,22,32,12.90
2013,09,28,22,33,11.30
2013,09,28,22,34,12.90
2013,09,28,22,35,14.50
2013,09,28,22,36,20.90
2013,09,28,22,37,11.30
2013,09,28,22,39,16.10
2013,09,28,22,40,16.10
2013,09,28,22,41,4.80
2013,09,28,22,43,8.10
2013,09,28,22,44,8.10
2013,09,28,22,48,4.80
2013,09,28,22,50,11.30
2013,09,28,22,51,9.60
2013,09,28,22,52,19.30
2013,09,28,22,53,17.70
2013,09,28,22,54,14.50
2013,09,28,22,55,8.10
2013,09,28,22,56,17.70
2013,09,28,22,57,24.20
2013,09,28,22,58,25.70
2013,09,28,22,59,17.70
2013,09,28,23,00,22.50
2013,09,28,23,01,19.30
2013,09,28,23,02,20.90
2013,09,28,23,03,19.30
2013,09,28,23,04,16.10
2013,09,28,23,05,27.40
2013,09,28,23,06,16.10
2013,09,28,23,07,25.70
2013,09,28,23,08,9.60
2013,09,28,23,09,12.90
2013,09,28,23,10,8.10
2013,09,28,23,11,8.10
2013,09,28,23,12,17.70
2013,09,28,23,13,20.90
2013,09,28,23,14,11.30
2013,09,28,23,15,24.20
2013,09,28,23,16,17.70
2013,09,28,23,17,16.10
2013,09,28,23,18,17.70
2013,09,28,23,19,20.90
2013,09,28,23,20,6.40
2013,09,28,23,21,12.90
2013,09,28,23,22,8.10
2013,09,28,23,23,12.90
2013,09,28,23,24,19.30
2013,09,28,23,25,12.90
2013,09,28,23,26,11.30
2013,09,28,23,27,12.90
2013,09,28,23,28,16.10
2013,09,28,23,29,17.70
2013,09,28,23,30,8.10
2013,09,28,23,31,14.50
2013,09,28,23,32,6.40
2013,09,28,23,33,6.40
2013,09,28,23,34,14.50
2013,09,28,23,35,11.30
2013,09,28,23,36,14.50
2013,09,28,23,37,8.10
2013,09,28,23,38,8.10
2013,09,28,23,39,4.80
2013,09,28,23,40,8.10
2013,09,28,23,41,6.40
2013,09,28,23,42,12.90
2013,09,28,23,43,9.60
2013,09,28,23,44,4.80
2013,09,28,23,45,9.60
2013,09,28,23,46,16.10
2013,09,28,23,47,9.60
2013,09,28,23,48,11.30
2013,09,28,23,50,1.60
2013,09,28,23,51,11.30
2013,09,28,23,52,9.60
2013,09,28,23,53,12.90
2013,09,28,23,54,6.40
